Location: Brno
(49.2000°N, 16.6330°E)
Time: 10:21:07
(UTC+02:00)

Vanguard 3 - Pass Details

Date: 28 July 2021
Orbit: 510 x 3260 km, 33.3° (Epoch: 18 September)

Event Time Altitude Azimuth Distance (km) Brightness Sun altitude
Rises 00:06:15 0° 268° (W) 7,138 12.1 -20.8°
Reaches altitude 10° 00:11:28 10° 262° (W) 6,193 11.7 -21.0°
Maximum altitude 00:28:30 39° 204° (SSW) 3,932 10.1 -21.5°
Enters shadow 00:35:58 27° 162° (SSE) 4,094 10.1 -21.6°
